Tracking 25195 objects as of 20-Jan-2022
HD Live streaming from Space Station
objects crossing your sky now

GEOTAIL

Track GEOTAIL now!
GEOTAIL is classified as:


NORAD ID: 22049
Int'l Code: 1992-044A
Perigee: 57,190.7 km
Apogee: 183,724.7 km
Inclination: 43.5 °
Period: 7,491.8 minutes
Semi major axis: 126828 km
RCS: 3.5 m2 (large)
Launch date: July 24, 1992
Source: Japan (JPN)
Launch site: AIR FORCE EASTERN TEST RANGE (AFETR)

Study the dynamics of the Earth's magnetotail over a wide range of distance
aabbcc
Your satellite tracking list
Your tracking list is empty




NASA's NSSDC Master Catalog

Two Line Element Set (TLE):
1 22049U 92044A   22025.08631128 -.00000503  00000-0  00000-0 0  9995
2 22049  43.5347  39.1674 4988382 192.6249   1.3810  0.19221029 12686
Source of the keplerian elements: AFSPC